Time,TemperatureF,DewpointF,PressureIn,WindDirection,WindDirectionDegrees,WindSpeedMPH,WindSpeedGustMPH,Humidity,HourlyPrecipIn,Conditions,Clouds,dailyrainin,SoftwareType,DateUTC
2013-02-06 00:00:00,41.0,-99.9,-100.00,East,91,1.0,-999.0,-999,-99.99,,,0.00,,2013-02-06 05:00:00,
2013-02-06 00:12:00,42.0,-99.9,-100.00,SSE,152,1.0,-999.0,-999,-99.99,,,0.00,,2013-02-06 05:12:00,
2013-02-06 00:22:00,42.0,-99.9,-100.00,SSE,152,1.0,-999.0,-999,-99.99,,,0.00,,2013-02-06 05:22:00,
2013-02-06 00:30:00,40.0,-99.9,-100.00,WSW,253,1.0,-999.0,-999,-99.99,,,0.00,,2013-02-06 05:30:00,
2013-02-06 00:42:00,41.0,-99.9,-100.00,East,91,1.0,-999.0,-999,-99.99,,,0.00,,2013-02-06 05:42:00,
2013-02-06 00:53:00,41.0,-99.9,-100.00,East,91,1.0,-999.0,-999,-99.99,,,0.00,,2013-02-06 05:53:00,
2013-02-06 01:11:00,40.0,-99.9,-100.00,WSW,253,1.0,-999.0,-999,-99.99,,,0.00,,2013-02-06 06:11:00,
2013-02-06 01:22:00,40.0,-99.9,-100.00,WSW,253,1.0,-999.0,-999,-99.99,,,0.00,,2013-02-06 06:22:00,
2013-02-06 01:30:00,39.0,-99.9,-100.00,NNE,14,1.0,-999.0,-999,-99.99,,,0.00,,2013-02-06 06:30:00,
2013-02-06 02:00:00,39.0,-99.9,-100.00,West,261,1.0,-999.0,-999,-99.99,,,0.00,,2013-02-06 07:00:00,
2013-02-06 02:11:00,39.0,-99.9,-100.00,NNE,14,1.0,-999.0,-999,-99.99,,,0.00,,2013-02-06 07:11:00,
2013-02-06 02:22:00,39.0,-99.9,-100.00,NNE,14,1.0,-999.0,-999,-99.99,,,0.00,,2013-02-06 07:22:00,
2013-02-06 02:30:00,38.0,-99.9,-100.00,South,184,1.0,-999.0,-999,-99.99,,,0.00,,2013-02-06 07:30:00,
2013-02-06 02:42:00,39.0,-99.9,-100.00,West,261,1.0,-999.0,-999,-99.99,,,0.00,,2013-02-06 07:42:00,
2013-02-06 02:52:00,39.0,-99.9,-100.00,West,261,1.0,-999.0,-999,-99.99,,,0.00,,2013-02-06 07:52:00,
2013-02-06 03:00:00,38.0,-99.9,-100.00,WSW,253,1.0,-999.0,-999,-99.99,,,0.00,,2013-02-06 08:00:00,
2013-02-06 03:11:00,38.0,-99.9,-100.00,South,184,1.0,-999.0,-999,-99.99,,,0.00,,2013-02-06 08:11:00,
2013-02-06 03:22:00,38.0,-99.9,-100.00,South,184,1.0,-999.0,-999,-99.99,,,0.00,,2013-02-06 08:22:00,
2013-02-06 03:30:00,37.0,-99.9,-100.00,WSW,257,1.0,-999.0,-999,-99.99,,,0.00,,2013-02-06 08:30:00,
2013-02-06 03:42:00,38.0,-99.9,-100.00,WSW,253,1.0,-999.0,-999,-99.99,,,0.00,,2013-02-06 08:42:00,
2013-02-06 03:53:00,38.0,-99.9,-100.00,WSW,253,1.0,-999.0,-999,-99.99,,,0.00,,2013-02-06 08:53:00,
2013-02-06 04:00:00,36.0,-99.9,-100.00,WSW,257,1.0,-999.0,-999,-99.99,,,0.00,,2013-02-06 09:00:00,
2013-02-06 04:11:00,37.0,-99.9,-100.00,WSW,257,1.0,-999.0,-999,-99.99,,,0.00,,2013-02-06 09:11:00,
2013-02-06 04:22:00,37.0,-99.9,-100.00,WSW,257,1.0,-999.0,-999,-99.99,,,0.00,,2013-02-06 09:22:00,
2013-02-06 04:30:00,36.0,-99.9,-100.00,NE,42,1.0,-999.0,-999,-99.99,,,0.00,,2013-02-06 09:30:00,
2013-02-06 04:42:00,36.0,-99.9,-100.00,WSW,257,1.0,-999.0,-999,-99.99,,,0.00,,2013-02-06 09:42:00,
2013-02-06 04:52:00,36.0,-99.9,-100.00,WSW,257,1.0,-999.0,-999,-99.99,,,0.00,,2013-02-06 09:52:00,
2013-02-06 05:00:00,36.0,-99.9,-100.00,NNE,20,1.0,-999.0,-999,-99.99,,,0.00,,2013-02-06 10:00:00,
2013-02-06 05:11:00,36.0,-99.9,-100.00,NE,42,1.0,-999.0,-999,-99.99,,,0.00,,2013-02-06 10:11:00,
2013-02-06 05:22:00,36.0,-99.9,-100.00,NE,42,1.0,-999.0,-999,-99.99,,,0.00,,2013-02-06 10:22:00,
2013-02-06 05:30:00,35.0,-99.9,-100.00,SSW,195,2.0,-999.0,-999,-99.99,,,0.00,,2013-02-06 10:30:00,
2013-02-06 05:42:00,36.0,-99.9,-100.00,NNE,20,1.0,-999.0,-999,-99.99,,,0.00,,2013-02-06 10:42:00,
2013-02-06 05:52:00,36.0,-99.9,-100.00,NNE,20,1.0,-999.0,-999,-99.99,,,0.00,,2013-02-06 10:52:00,
2013-02-06 06:11:00,35.0,-99.9,-100.00,SSW,195,2.0,-999.0,-999,-99.99,,,0.00,,2013-02-06 11:11:00,
2013-02-06 06:22:00,35.0,-99.9,-100.00,SSW,195,2.0,-999.0,-999,-99.99,,,0.00,,2013-02-06 11:22:00,
2013-02-06 06:30:00,34.0,-99.9,-100.00,WSW,239,1.0,-999.0,-999,-99.99,,,0.00,,2013-02-06 11:30:00,
2013-02-06 06:42:00,34.0,-99.9,-100.00,NW,319,1.0,-999.0,-999,-99.99,,,0.00,,2013-02-06 11:42:00,
2013-02-06 06:53:00,34.0,-99.9,-100.00,NW,322,1.0,-999.0,-999,-99.99,,,0.00,,2013-02-06 11:53:00,
2013-02-06 07:02:00,34.0,-99.9,-100.00,NW,322,1.0,-999.0,-999,-99.99,,,0.00,,2013-02-06 12:02:00,
2013-02-06 07:12:00,34.0,-99.9,-100.00,WSW,239,1.0,-999.0,-999,-99.99,,,0.00,,2013-02-06 12:12:00,
2013-02-06 07:22:00,34.0,-99.9,-100.00,WSW,239,1.0,-999.0,-999,-99.99,,,0.00,,2013-02-06 12:22:00,
2013-02-06 07:42:00,33.0,-99.9,-100.00,NW,314,0.0,-999.0,-999,-99.99,,,0.00,,2013-02-06 12:42:00,
2013-02-06 07:52:00,33.0,-99.9,-100.00,NW,308,1.0,-999.0,-999,-99.99,,,0.00,,2013-02-06 12:52:00,
2013-02-06 08:02:00,33.0,-99.9,-100.00,NW,308,1.0,-999.0,-999,-99.99,,,0.00,,2013-02-06 13:02:00,
2013-02-06 08:12:00,33.0,-99.9,-100.00,North,7,1.0,-999.0,-999,-99.99,,,-99.99,,2013-02-06 13:12:00,
2013-02-06 08:22:00,33.0,-99.9,-100.00,North,7,1.0,-999.0,-999,-99.99,,,-99.99,,2013-02-06 13:22:00,
2013-02-06 08:32:00,33.0,-99.9,-100.00,North,356,1.0,-999.0,-999,-99.99,,,0.00,,2013-02-06 13:32:00,
2013-02-06 08:42:00,33.0,-99.9,-100.00,North,356,1.0,-999.0,-999,-99.99,,,0.00,,2013-02-06 13:42:00,
2013-02-06 08:52:00,33.0,-99.9,-100.00,WNW,284,1.0,-999.0,-999,-99.99,,,0.00,,2013-02-06 13:52:00,
2013-02-06 09:00:00,35.0,-99.9,-100.00,SW,219,2.0,-999.0,-999,-99.99,,,0.00,,2013-02-06 14:00:00,
2013-02-06 09:02:00,33.0,-99.9,-100.00,WNW,284,1.0,-999.0,-999,-99.99,,,0.00,,2013-02-06 14:02:00,
2013-02-06 09:11:00,34.0,-99.9,-100.00,West,276,1.0,-999.0,-999,-99.99,,,-99.99,,2013-02-06 14:11:00,
2013-02-06 09:22:00,34.0,-99.9,-100.00,West,276,1.0,-999.0,-999,-99.99,,,-99.99,,2013-02-06 14:22:00,
2013-02-06 09:32:00,35.0,-99.9,-100.00,SW,219,2.0,-999.0,-999,-99.99,,,0.00,,2013-02-06 14:32:00,
2013-02-06 09:42:00,35.0,-99.9,-100.00,SW,219,2.0,-999.0,-999,-99.99,,,0.00,,2013-02-06 14:42:00,
2013-02-06 09:52:00,35.0,-99.9,-100.00,SW,219,2.0,-999.0,-999,-99.99,,,0.00,,2013-02-06 14:52:00,
2013-02-06 10:11:00,38.0,-99.9,-100.00,West,263,1.0,-999.0,-999,-99.99,,,-99.99,,2013-02-06 15:11:00,
2013-02-06 10:21:00,40.0,-99.9,-100.00,SW,215,1.0,-999.0,-999,-99.99,,,0.00,,2013-02-06 15:21:00,
2013-02-06 10:32:00,42.0,-99.9,-100.00,SSE,151,1.0,-999.0,-999,-99.99,,,0.00,,2013-02-06 15:32:00,
2013-02-06 10:42:00,42.0,-99.9,-100.00,SSE,151,1.0,-999.0,-999,-99.99,,,0.00,,2013-02-06 15:42:00,
2013-02-06 10:52:00,43.0,-99.9,-100.00,ENE,57,1.0,-999.0,-999,-99.99,,,0.00,,2013-02-06 15:52:00,
2013-02-06 11:02:00,43.0,-99.9,-100.00,ENE,57,1.0,-999.0,-999,-99.99,,,0.00,,2013-02-06 16:02:00,
2013-02-06 11:11:00,44.0,-99.9,-100.00,WNW,301,1.0,-999.0,-999,-99.99,,,0.00,,2013-02-06 16:11:00,
2013-02-06 11:22:00,45.0,-99.9,-100.00,NE,36,2.0,-999.0,-999,-99.99,,,0.00,,2013-02-06 16:22:00,
2013-02-06 11:30:00,52.0,-99.9,-100.00,SSE,168,2.0,-999.0,-999,-99.99,,,0.00,,2013-02-06 16:30:00,
2013-02-06 11:32:00,45.0,-99.9,-100.00,NE,36,2.0,-999.0,-999,-99.99,,,0.00,,2013-02-06 16:32:00,
2013-02-06 11:42:00,47.0,-99.9,-100.00,South,176,1.0,-999.0,-999,-99.99,,,0.00,,2013-02-06 16:42:00,
2013-02-06 11:52:00,51.0,-99.9,-100.00,SSE,149,2.0,-999.0,-999,-99.99,,,0.00,,2013-02-06 16:52:00,
2013-02-06 12:02:00,51.0,-99.9,-100.00,SSE,149,2.0,-999.0,-999,-99.99,,,0.00,,2013-02-06 17:02:00,
2013-02-06 12:12:00,52.0,-99.9,-100.00,SSE,168,2.0,-999.0,-999,-99.99,,,0.00,,2013-02-06 17:12:00,
2013-02-06 12:22:00,52.0,-99.9,-100.00,SSE,168,2.0,-999.0,-999,-99.99,,,0.00,,2013-02-06 17:22:00,
2013-02-06 12:42:00,54.0,-99.9,-100.00,SSE,154,3.0,-999.0,-999,-99.99,,,0.00,,2013-02-06 17:42:00,
2013-02-06 12:53:00,55.0,-99.9,-100.00,SSW,193,3.0,-999.0,-999,-99.99,,,0.00,,2013-02-06 17:53:00,
2013-02-06 13:02:00,55.0,-99.9,-100.00,SSW,193,3.0,-999.0,-999,-99.99,,,0.00,,2013-02-06 18:02:00,
2013-02-06 13:12:00,55.0,-99.9,-100.00,South,186,4.0,-999.0,-999,-99.99,,,0.00,,2013-02-06 18:12:00,
2013-02-06 13:23:00,56.0,-99.9,-100.00,SSE,158,4.0,-999.0,-999,-99.99,,,0.00,,2013-02-06 18:23:00,
2013-02-06 13:33:00,56.0,-99.9,-100.00,SSE,158,4.0,-999.0,-999,-99.99,,,0.00,,2013-02-06 18:33:00,
2013-02-06 13:42:00,56.0,-99.9,-100.00,SE,136,3.0,-999.0,-999,-99.99,,,0.00,,2013-02-06 18:42:00,
2013-02-06 13:52:00,57.0,-99.9,-100.00,South,191,4.0,-999.0,-999,-99.99,,,0.00,,2013-02-06 18:52:00,
2013-02-06 14:02:00,57.0,-99.9,-100.00,South,191,4.0,-999.0,-999,-99.99,,,0.00,,2013-02-06 19:02:00,
2013-02-06 14:11:00,57.0,-99.9,-100.00,South,191,4.0,-999.0,-999,-99.99,,,0.00,,2013-02-06 19:11:00,
2013-02-06 14:22:00,59.0,-99.9,-100.00,SW,218,4.0,-999.0,-999,-99.99,,,0.00,,2013-02-06 19:22:00,
2013-02-06 14:32:00,59.0,-99.9,-100.00,SW,218,4.0,-999.0,-999,-99.99,,,0.00,,2013-02-06 19:32:00,
2013-02-06 14:42:00,58.0,-99.9,-100.00,WNW,301,5.0,-999.0,-999,-99.99,,,0.00,,2013-02-06 19:42:00,
2013-02-06 14:52:00,59.0,-99.9,-100.00,ESE,110,4.0,-999.0,-999,-99.99,,,0.00,,2013-02-06 19:52:00,
2013-02-06 15:01:00,59.0,-99.9,-100.00,ESE,110,4.0,-999.0,-999,-99.99,,,0.00,,2013-02-06 20:01:00,
2013-02-06 15:11:00,60.0,-99.9,-100.00,SE,144,4.0,-999.0,-999,-99.99,,,0.00,,2013-02-06 20:11:00,
2013-02-06 15:22:00,60.0,-99.9,-100.00,SE,126,4.0,-999.0,-999,-99.99,,,0.00,,2013-02-06 20:22:00,
2013-02-06 15:32:00,60.0,-99.9,-100.00,SE,126,4.0,-999.0,-999,-99.99,,,0.00,,2013-02-06 20:32:00,
2013-02-06 15:42:00,60.0,-99.9,-100.00,SSE,157,4.0,-999.0,-999,-99.99,,,0.00,,2013-02-06 20:42:00,
2013-02-06 15:52:00,60.0,-99.9,-100.00,South,188,3.0,-999.0,-999,-99.99,,,0.00,,2013-02-06 20:52:00,
2013-02-06 16:02:00,60.0,-99.9,-100.00,South,188,3.0,-999.0,-999,-99.99,,,0.00,,2013-02-06 21:02:00,
2013-02-06 16:11:00,61.0,-99.9,-100.00,South,183,4.0,-999.0,-999,-99.99,,,0.00,,2013-02-06 21:11:00,
2013-02-06 16:22:00,61.0,-99.9,-100.00,South,171,3.0,-999.0,-999,-99.99,,,0.00,,2013-02-06 21:22:00,
2013-02-06 16:32:00,61.0,-99.9,-100.00,South,171,3.0,-999.0,-999,-99.99,,,0.00,,2013-02-06 21:32:00,
2013-02-06 16:42:00,61.0,-99.9,-100.00,SSE,160,5.0,-999.0,-999,-99.99,,,0.00,,2013-02-06 21:42:00,
2013-02-06 16:52:00,61.0,-99.9,-100.00,SE,131,3.0,-999.0,-999,-99.99,,,0.00,,2013-02-06 21:52:00,
2013-02-06 17:01:00,61.0,-99.9,-100.00,SE,131,3.0,-999.0,-999,-99.99,,,0.00,,2013-02-06 22:01:00,
2013-02-06 17:11:00,61.0,-99.9,-100.00,SSE,152,2.0,-999.0,-999,-99.99,,,0.00,,2013-02-06 22:11:00,
2013-02-06 17:22:00,61.0,-99.9,-100.00,ESE,116,2.0,-999.0,-999,-99.99,,,0.00,,2013-02-06 22:22:00,
2013-02-06 17:32:00,61.0,-99.9,-100.00,ESE,116,2.0,-999.0,-999,-99.99,,,0.00,,2013-02-06 22:32:00,
2013-02-06 17:42:00,61.0,-99.9,-100.00,South,173,2.0,-999.0,-999,-99.99,,,0.00,,2013-02-06 22:42:00,
2013-02-06 17:52:00,61.0,-99.9,-100.00,ESE,122,1.0,-999.0,-999,-99.99,,,0.00,,2013-02-06 22:52:00,
2013-02-06 18:00:00,60.0,-99.9,-100.00,ENE,67,4.0,-999.0,-999,-99.99,,,0.00,,2013-02-06 23:00:00,
2013-02-06 18:01:00,61.0,-99.9,-100.00,ESE,122,1.0,-999.0,-999,-99.99,,,0.00,,2013-02-06 23:01:00,
2013-02-06 18:11:00,61.0,-99.9,-100.00,ENE,72,2.0,-999.0,-999,-99.99,,,0.00,,2013-02-06 23:11:00,
2013-02-06 18:21:00,61.0,-99.9,-100.00,East,79,3.0,-999.0,-999,-99.99,,,0.00,,2013-02-06 23:21:00,
2013-02-06 18:32:00,61.0,-99.9,-100.00,East,79,3.0,-999.0,-999,-99.99,,,0.00,,2013-02-06 23:32:00,
2013-02-06 18:42:00,60.0,-99.9,-100.00,ENE,67,4.0,-999.0,-999,-99.99,,,0.00,,2013-02-06 23:42:00,
2013-02-06 18:52:00,60.0,-99.9,-100.00,ENE,67,4.0,-999.0,-999,-99.99,,,0.00,,2013-02-06 23:52:00,
2013-02-06 19:11:00,57.0,-99.9,-100.00,North,350,1.0,-999.0,-999,-99.99,,,0.00,,2013-02-07 00:11:00,
2013-02-06 19:22:00,55.0,-99.9,-100.00,SE,127,1.0,-999.0,-999,-99.99,,,0.00,,2013-02-07 00:22:00,
2013-02-06 19:32:00,55.0,-99.9,-100.00,SE,127,1.0,-999.0,-999,-99.99,,,0.00,,2013-02-07 00:32:00,
2013-02-06 19:42:00,54.0,-99.9,-100.00,SE,137,1.0,-999.0,-999,-99.99,,,0.00,,2013-02-07 00:42:00,
2013-02-06 19:52:00,53.0,-99.9,-100.00,WNW,286,1.0,-999.0,-999,-99.99,,,-99.99,,2013-02-07 00:52:00,
2013-02-06 20:01:00,53.0,-99.9,-100.00,WNW,286,1.0,-999.0,-999,-99.99,,,-99.99,,2013-02-07 01:01:00,
2013-02-06 20:11:00,51.0,-99.9,-100.00,ENE,66,3.0,-999.0,-999,-99.99,,,0.00,,2013-02-07 01:11:00,
2013-02-06 20:22:00,50.0,-99.9,-100.00,ENE,76,2.0,-999.0,-999,-99.99,,,0.00,,2013-02-07 01:22:00,
2013-02-06 20:32:00,50.0,-99.9,-100.00,ENE,76,2.0,-999.0,-999,-99.99,,,0.00,,2013-02-07 01:32:00,
2013-02-06 20:42:00,49.0,-99.9,-100.00,SW,222,1.0,-999.0,-999,-99.99,,,0.00,,2013-02-07 01:42:00,
2013-02-06 20:52:00,48.0,-99.9,-100.00,SW,214,1.0,-999.0,-999,-99.99,,,-99.99,,2013-02-07 01:52:00,
2013-02-06 21:02:00,48.0,-99.9,-100.00,SW,214,1.0,-999.0,-999,-99.99,,,-99.99,,2013-02-07 02:02:00,
2013-02-06 21:12:00,48.0,-99.9,-100.00,SW,217,1.0,-999.0,-999,-99.99,,,0.00,,2013-02-07 02:12:00,
2013-02-06 21:22:00,47.0,-99.9,-100.00,NW,320,1.0,-999.0,-999,-99.99,,,0.00,,2013-02-07 02:22:00,
2013-02-06 21:32:00,47.0,-99.9,-100.00,NW,320,1.0,-999.0,-999,-99.99,,,0.00,,2013-02-07 02:32:00,
2013-02-06 21:42:00,47.0,-99.9,-100.00,NW,320,1.0,-999.0,-999,-99.99,,,0.00,,2013-02-07 02:42:00,
2013-02-06 22:02:00,46.0,-99.9,-100.00,ENE,68,1.0,-999.0,-999,-99.99,,,-99.99,,2013-02-07 03:02:00,
2013-02-06 22:11:00,45.0,-99.9,-100.00,WSW,251,0.0,-999.0,-999,-99.99,,,0.00,,2013-02-07 03:11:00,
2013-02-06 22:22:00,45.0,-99.9,-100.00,NNW,330,1.0,-999.0,-999,-99.99,,,0.00,,2013-02-07 03:22:00,
2013-02-06 22:32:00,45.0,-99.9,-100.00,NNW,330,1.0,-999.0,-999,-99.99,,,0.00,,2013-02-07 03:32:00,
2013-02-06 22:42:00,44.0,-99.9,-100.00,NNW,333,1.0,-999.0,-999,-99.99,,,0.00,,2013-02-07 03:42:00,
2013-02-06 22:52:00,43.0,-99.9,-100.00,East,90,1.0,-999.0,-999,-99.99,,,-99.99,,2013-02-07 03:52:00,
2013-02-06 23:01:00,43.0,-99.9,-100.00,East,90,1.0,-999.0,-999,-99.99,,,-99.99,,2013-02-07 04:01:00,
2013-02-06 23:11:00,43.0,-99.9,-100.00,ENE,57,1.0,-999.0,-999,-99.99,,,0.00,,2013-02-07 04:11:00,
2013-02-06 23:22:00,44.0,-99.9,-100.00,SSW,198,1.0,-999.0,-999,-99.99,,,-99.99,,2013-02-07 04:22:00,
2013-02-06 23:32:00,44.0,-99.9,-100.00,SSW,198,1.0,-999.0,-999,-99.99,,,-99.99,,2013-02-07 04:32:00,
2013-02-06 23:42:00,44.0,-99.9,-100.00,NNE,33,1.0,-999.0,-999,-99.99,,,0.00,,2013-02-07 04:42:00,
2013-02-06 23:53:00,43.0,-99.9,-100.00,ENE,73,2.0,-999.0,-999,-99.99,,,-99.99,,2013-02-07 04:53:00,